This demonstration page uses our WeatherBlox Daily Observations layout. Learn more.

Left ArrowRight Arrow

40.92945, -100.16068

Hourly Observations for April 19, 2020

Temp ( °F °C ) Dew Point ( °F °C ) Humidity (%) Winds ( mph kmh ) Pressure ( in mb ) Visibility ( mi km ) Precip ( " mm )
12:15 am 00:15 Clear 49 9.6 35 1.5 57 57 NE 16 26 29.80 1009 10 16 0.00 0.00
12:35 am 00:35 Clear 49 9.5 36 2.1 60 60 NE 15 24 29.82 1010 10 16 0.00 0.00
12:55 am 00:55 Clear 49 9.3 36 2.3 62 62 NE 13 20 29.83 1010 10 16 0.00 0.00
1:15 am 01:15 Clear 47 8.6 37 2.5 66 66 NE 10 17 29.84 1011 10 16 0.00 0.00
1:30 am 01:30 Clear 47 8.1 37 2.5 68 68 ENE 9 15 29.86 1011 10 16 0.00 0.00
1:55 am 01:55 Clear 45 7.1 37 2.5 73 73 NE 7 11 29.87 1011 10 16 0.00 0.00
2:15 am 02:15 Clear 44 6.5 37 2.5 76 76 NE 8 13 29.86 1011 10 16 0.00 0.00
2:35 am 02:35 Clear 44 6.5 37 2.5 76 76 NE 8 13 29.86 1011 10 16 0.00 0.00
2:55 am 02:55 Clear 42 5.8 36 2.2 78 78 NNE 8 13 29.86 1011 10 16 0.00 0.00
3:15 am 03:15 Clear 42 5.6 36 2.3 80 80 NNE 9 15 29.86 1011 10 16 0.00 0.00
3:35 am 03:35 Clear 41 4.8 36 2 82 82 N 9 15 29.88 1012 10 16 0.00 0.00
3:55 am 03:55 Clear 40 4.4 35 1.9 84 84 N 7 11 29.89 1012 10 16 0.00 0.00
4:15 am 04:15 Clear 39 3.7 35 1.7 87 87 N 8 13 29.90 1013 10 16 0.00 0.00
4:35 am 04:35 Clear 38 3.5 35 1.6 88 88 NNE 8 13 29.90 1013 10 16 0.00 0.00
4:55 am 04:55 Clear 38 3.5 35 1.5 87 87 N 9 15 29.91 1013 10 16 0.00 0.00
5:15 am 05:15 Clear 39 3.8 36 2 88 88 NNE 9 15 29.91 1013 10 16 0.00 0.00
5:35 am 05:35 Clear 37 2.9 35 1.4 90 90 NNE 6 9 29.93 1013 10 16 0.00 0.00
5:55 am 05:55 Clear 37 2.8 34 1.3 90 90 N 8 13 29.93 1014 10 16 0.00 0.00
6:15 am 06:15 Clear 36 2 33 0.7 91 91 N 5 7 29.95 1014 10 16 0.00 0.00
6:35 am 06:35 Clear 35 1.9 33 0.7 92 92 N 5 7 29.96 1014 10 16 0.00 0.00
6:55 am 06:55 Sunny 34 1.1 32 0 92 92 N 6 9 29.97 1015 10 16 0.00 0.00
7:15 am 07:15 Sunny 33 0.3 31 -0.4 95 95 Calm 29.98 1015 10 16 0.00 0.00
7:35 am 07:35 Sunny 36 2.1 33 0.7 91 91 N 5 7 29.98 1015 10 16 0.00 0.00
7:55 am 07:55 Sunny 39 4.1 37 2.5 89 89 NE 6 9 29.97 1015 10 16 0.00 0.00
8:15 am 08:15 Sunny 42 5.6 38 3.3 85 85 NNE 6 9 29.95 1014 10 16 0.00 0.00
8:35 am 08:35 Sunny 46 7.6 39 3.8 77 77 NE 9 15 29.94 1014 10 16 0.00 0.00
8:55 am 08:55 Sunny 47 8.6 38 3.6 71 71 NE 13 20 29.93 1014 10 16 0.00 0.00
9:15 am 09:15 Sunny 49 9.7 38 3.5 66 66 NE 12 19 29.92 1013 10 16 0.00 0.00
9:35 am 09:35 Sunny 51 10.3 38 3.1 61 61 NE 13 20 29.93 1013 10 16 0.00 0.00
9:55 am 09:55 Sunny 52 11 38 3.2 59 59 NE 10 17 29.92 1013 10 16 0.00 0.00
10:15 am 10:15 Sunny 53 11.6 38 3.1 56 56 ENE 12 19 29.92 1013 10 16 0.00 0.00
10:35 am 10:35 Sunny 54 12 37 2.9 54 54 E 9 15 29.92 1013 10 16 0.00 0.00
10:55 am 10:55 Sunny 55 12.6 37 2.7 51 51 ENE 10 17 29.92 1013 10 16 0.00 0.00
11:15 am 11:15 Sunny 55 12.9 36 2.4 49 49 E 7 11 29.92 1013 10 16 0.00 0.00
11:35 am 11:35 Sunny 57 13.7 37 2.9 48 48 ENE 13 20 29.92 1013 10 16 0.00 0.00
11:55 am 11:55 Sunny 56 13.6 36 2.2 46 46 E 6 9 29.91 1013 10 16 0.00 0.00
12:15 pm 12:15 Sunny 58 14.5 37 2.6 45 45 E 7 11 29.89 1012 10 16 0.00 0.00
12:35 pm 12:35 Sunny 59 14.8 36 2.1 43 43 ENE 9 15 29.89 1012 10 16 0.00 0.00
12:55 pm 12:55 Sunny 58 14.6 36 2 43 43 E 13 20 29.88 1012 10 16 0.00 0.00
1:15 pm 13:15 Sunny 60 15.3 37 2.5 42 42 E 10 17 29.87 1012 10 16 0.00 0.00
1:35 pm 13:35 Sunny 59 15.1 36 2.1 42 42 E 10 17 29.86 1011 10 16 0.00 0.00
1:55 pm 13:55 Sunny 61 16 38 3.3 43 43 E 9 15 29.84 1010 10 16 0.00 0.00
2:15 pm 14:15 Sunny 60 15.6 36 2 40 40 SE 3 6 29.83 1010 10 16 0.00 0.00
2:35 pm 14:35 Partly Cloudy 60 15.8 36 2.2 40 40 Calm 29.83 1010 10 16 0.00 0.00
2:55 pm 14:55 Sunny 61 15.9 36 2 39 39 NE 7 11 29.83 1010 10 16 0.00 0.00
3:15 pm 15:15 Partly Cloudy 62 16.4 36 2.1 38 38 ESE 6 9 29.81 1010 10 16 0.00 0.00
3:35 pm 15:35 Mostly Cloudy 63 17 37 2.5 38 38 SE 5 7 29.80 1009 10 16 0.00 0.00
3:55 pm 15:55 Partly Cloudy 63 17.3 37 2.8 38 38 SE 9 15 29.80 1009 10 16 0.00 0.00
4:15 pm 16:15 Mostly Cloudy 62 16.4 36 2.2 39 39 E 6 9 29.80 1009 10 16 0.00 0.00
4:35 pm 16:35 Cloudy 63 17.3 37 2.7 38 38 E 6 9 29.79 1009 10 16 0.00 0.00
4:55 pm 16:55 Cloudy 61 16.1 37 2.7 41 41 E 7 11 29.80 1009 10 16 0.00 0.00
5:15 pm 17:15 Partly Cloudy 63 17.3 37 3 39 39 ENE 7 11 29.79 1009 10 16 0.00 0.00
5:35 pm 17:35 Mostly Cloudy 62 16.4 36 2.2 39 39 SE 3 6 29.78 1009 10 16 0.00 0.00
5:55 pm 17:55 Mostly Cloudy 61 16.1 37 2.9 41 41 E 3 6 29.79 1009 10 16 0.00 0.00
6:15 pm 18:15 Mostly Cloudy 62 16.9 37 2.7 39 39 Calm 29.77 1008 10 16 0.00 0.00
6:35 pm 18:35 Partly Cloudy 63 17 37 2.6 38 38 ESE 5 7 29.77 1008 10 16 0.00 0.00
6:55 pm 18:55 Sunny 62 16.6 37 2.6 39 39 ESE 9 15 29.76 1008 10 16 0.00 0.00
7:15 pm 19:15 Sunny 61 16.1 36 2.2 39 39 ESE 9 15 29.76 1008 10 16 0.00 0.00
7:35 pm 19:35 Sunny 60 15.5 36 2.1 41 41 ESE 9 15 29.76 1008 10 16 0.00 0.00
7:55 pm 19:55 Sunny 57 14 36 2.1 45 45 ESE 5 7 29.78 1008 10 16 0.00 0.00
8:15 pm 20:15 Sunny 56 13.2 36 2.3 48 48 ESE 8 13 29.78 1009 10 16 0.00 0.00
8:35 pm 20:35 Clear 55 12.8 36 2.2 49 49 ESE 8 13 29.80 1009 10 16 0.00 0.00
8:55 pm 20:55 Clear 54 12.4 36 2.4 51 51 E 9 15 29.80 1009 10 16 0.00 0.00
9:15 pm 21:15 Mostly Cloudy 51 10.8 37 2.6 57 57 ENE 7 11 29.83 1010 10 16 0.00 0.00
9:35 pm 21:35 Cloudy with Light Rain 55 12.5 37 2.5 51 51 NE 13 20 29.86 1011 10 16 0.00 0.00
9:55 pm 21:55 Cloudy with Heavy Rain 50 10 45 7.2 83 83 NNW 24 39 29.92 1013 5 8 0.01 0.25
10:15 pm 22:15 Cloudy with Rain 48 9.1 46 7.5 90 90 NNE 7 11 29.93 1014 10 16 0.02 0.51
10:35 pm 22:35 Cloudy 47 8.6 46 7.5 93 93 ENE 6 9 29.91 1013 10 16 0.02 0.51
10:55 pm 22:55 Cloudy 47 8.5 46 7.6 94 94 NE 6 9 29.94 1014 10 16 0.02 0.51
11:15 pm 23:15 Cloudy 47 8.5 46 7.6 94 94 NNE 5 7 29.95 1014 10 16 0.00 0.00
11:35 pm 23:35 Cloudy with Drizzle 47 8.5 46 7.5 94 94 N 3 6 29.95 1014 10 16 0.00 0.00
11:55 pm 23:55 Cloudy with Light Rain 47 8.4 46 8 97 97 SSE 14 22 29.91 1013 4 6 0.06 1.52

Powered by AerisWeather